Regional Weather Roundup
Issued by NWS Portland, ME

Home | Current Version | Previous Version | Text Only | Print | Product List | Glossary On
Versions: 1 2 3 4 5 6 7 8 9 10 11 12 13 14 15 16 17 18 19 20 21 22 23 24 25 26 27 28 29 30 31 32 33 34 35 36 37 38 39 40 41 42 43 44 45 46 47 48 49 50
597
ASUS41 KGYX 191710
RWRGYX
WEATHER ROUNDUP FOR MAINE AND NEW HAMPSHIRE
NATIONAL WEATHER SERVICE GRAY ME
1200 PM EST THU JAN 19 2017

MEZ002-005-006-010-012-015-018-020-021-024-026-027-029-191800-
MAINE

CITY           SKY/WX    TMP DP  RH WIND       PRES   REMARKS
PORTLAND       MOSUNNY   34  28  79 NW6       29.96F
SANFORD        SUNNY     34  30  85 CALM      29.95F
BAR HARBOR     CLOUDY    34  31  88 CALM      29.92F
WISCASSET      CLOUDY    34  28  79 CALM      29.95F
ROCKLAND       CLOUDY    34  32  92 W8        29.92F
FRYEBURG       SUNNY     34  28  79 CALM      29.93F
LEWISTONAUBURN SUNNY     33  28  81 W3        29.94F
AUGUSTA        SUNNY     31  25  78 SW5       29.92F
WATERVILLE     SUNNY     32  26  78 CALM      29.89F
BANGOR         CLOUDY    28  25  88 CALM      29.92F
GREENVILLE       N/A     30  27  88 CALM      29.81F
MILLINOCKET    CLOUDY    30  25  81 W5        29.88F
HOULTON        LGT SNOW  27  24  89 VRB7      29.86F FOG
PRESQUE ISLE   MIX PCPN  25  22  88 CALM      29.86F
FRENCHVILLE    CLOUDY    23  19  85 CALM      29.81F
CARIBOU        CLOUDY    24  20  84 S3        29.83F
$$

NHZ002-005-008-009-011-012-014-191800-
NEW HAMPSHIRE

CITY           SKY/WX    TMP DP  RH WIND       PRES   REMARKS
PORTSMOUTH     MOSUNNY   37  32  84 W5        29.94F
ROCHESTER      SUNNY     38  31  76 NW5       29.94F
NASHUA         CLOUDY    39  37  93 CALM      29.97F FOG
MANCHESTER     CLOUDY    34  31  88 CALM      29.96F
CONCORD        PTSUNNY   32  30  92 S3        29.96F
LACONIA        CLOUDY    37  30  75 SW8       29.94F
PLYMOUTH       CLOUDY    37  32  79 NW6       29.94F
BERLIN         CLOUDY    35  28  75 VRB3      29.91F
WHITEFIELD     CLOUDY    35  30  82 S3        29.94F
JAFFREY        PTSUNNY   42  31  64 NW7       29.94F
KEENE          MOSUNNY   36  32  87 CALM      29.97F
LEBANON        CLOUDY    35  32  88 CALM      29.97F
MT WASHINGTON  BLWGSNOW  16  16 100 W52         N/A  VSB 1/16WCI  -9
$$

VTZ005-007-008-191800-
VERMONT

CITY           SKY/WX    TMP DP  RH WIND       PRES   REMARKS
ST JOHNSBURY     N/A     34  31  88 MISG      29.94F
MONTPELIER     CLOUDY    35  31  85 NW7       29.98F
BURLINGTON     CLOUDY    39  35  86 CALM      29.99F
$$

MAZ007-012-024-CTZ003-RIZ002-NYZ038-NYZ072-191800-
SOUTHERN NEW ENGLAND AND NY

CITY           SKY/WX    TMP DP  RH WIND       PRES   REMARKS
BOSTON         MOSUNNY   43  35  73 W12       29.97F
WORCESTER      MOSUNNY   39  32  76 W13       29.94F
NANTUCKET      MOSUNNY   42  36  79 NW7       29.96F
PROVIDENCE     PTSUNNY   45  33  63 N9        29.96F
HARTFORD       PTSUNNY   44  34  67 NW12      29.99F
ALBANY         LGT RAIN  41  34  76 W10       30.02F
NEW YORK CITY  MOSUNNY   49  35  58 NW9       30.01F
$$

ANZ081-ANZ082-ANZ150-NHZ014-MEZ023>029-191800-
COASTAL MARINE OBSERVATIONS

STATION/POSITION TIME  TEMP    WIND        PRES    WAVE
                       AIR SEA DIR/SP/G            HT/PER
                 (UTC) (F)     (DEG/KT/KT) (MB)    (FT/S)
MOUNT DESERT ROC 1700   39                 1012.9F
MATINICUS ROCK   1600   36     270/  7/  9 1013.5F
ISLE OF SHOALS   1600   34     260/  5/  6 1015.0F
CASHES LEDGE BUO 1650   41 46  250/ 10/ 14 1013.7F   7/ 8
GEORGES BANK BUO 1650   42 44              1010.9F  10/11
$$

.............KEY..............
   WCI - WIND CHILL
   TC  - TEMPERATURE IN CELSIUS
   VSB - VISIBILITY IN MILES
   HX  - HEAT INDEX
   FAIR- INDICATES FEW OR NO CLOUDS BELOW 12,000 FT, WITH NO
         SIGNIFICANT WEATHER AND/OR OBSTRUCTIONS TO VISIBILITY.






USA.gov is the U.S. government's official web portal to all federal, state and local government web resources and services.